User: anonymous   Login
Location: Oshawa
(43.9000°N, 78.8670°W)
Time: 05:29:26
(UTC-04:00)
Language:

CARTOSAT-1 - Orbit

View from above orbital plane
View from above orbital plane
View from above satellite
View from above satellite

Ground track
Ground track

The orbit data is extracted from the following two-line orbital elements,

1 28649U 05017A   14298.78300165  .00002062  00000-0  25717-3 0  7360
2 28649 097.8229 010.2122 0000238 034.6046 325.5198 14.83485931512852
Epoch (UTC): 25 October 2014 18:47:31
Eccentricity: 0.0000238
inclination: 97.8229°
perigee height: 618 km
apogee height: 618 km
right ascension of ascending node: 10.2122°
argument of perigee: 34.6046°
revolutions per day: 14.83485931
mean anomaly at epoch: 325.5198°
orbit number at epoch: 51285

The dashed part of the orbit path shows where the satellite is in the earth's shadow,  

DLR